| time (UTC) | temp F | wind direction | speed knots | gust knots | rain 1hr in | rain 24hr in | rain mn in | humidity % | barometer mb |
| 20260507014539 | 69 | 234 | 4.3 | 8.7 | 0.00 | 0.00 | 0.00 | 59 | 1014.5 |
| 20260507013038 | 70 | 250 | 5.2 | 8.7 | 0.00 | 0.00 | 0.00 | 57 | 1014.5 |
| 20260507011539 | 70 | 270 | 4.3 | 9.6 | 0.00 | 0.00 | 0.00 | 58 | 1014.4 |
| 20260507010043 | 70 | 253 | 6.1 | 9.6 | 0.00 | 0.00 | 0.00 | 58 | 1014.4 |
| 20260507004537 | 71 | 218 | 5.2 | 9.6 | 0.00 | 0.00 | 0.00 | 57 | 1014.3 |
| 20260507003036 | 71 | 230 | 4.3 | 9.6 | 0.00 | 0.00 | 0.00 | 57 | 1014.3 |
| 20260507001536 | 71 | 255 | 7.0 | 9.6 | 0.00 | 0.00 | 0.00 | 57 | 1014.3 |
| 20260507000037 | 72 | 256 | 6.1 | 8.7 | 0.00 | 0.00 | 0.00 | 56 | 1014.3 |
| 20260506234543 | 72 | 199 | 5.2 | 8.7 | 0.00 | 0.00 | 0.00 | 56 | 1014.3 |
| 20260506233035 | 73 | 224 | 5.2 | 11.3 | 0.00 | 0.00 | 0.00 | 56 | 1014.2 |
| 20260506231534 | 73 | 239 | 6.1 | 13.0 | 0.00 | 0.00 | 0.00 | 56 | 1014.2 |
| 20260506230034 | 73 | 239 | 7.0 | 12.2 | 0.00 | 0.00 | 0.00 | 56 | 1014.3 |
| 20260506224532 | 73 | 237 | 7.8 | 13.0 | 0.00 | 0.00 | 0.00 | 56 | 1014.5 |
| 20260506223031 | 73 | 217 | 7.8 | 14.8 | 0.00 | 0.00 | 0.00 | 55 | 1014.6 |
| 20260506221527 | 73 | 271 | 7.0 | 13.9 | 0.00 | 0.00 | 0.00 | 56 | 1014.8 |
| 20260506220034 | 73 | 262 | 8.7 | 13.9 | 0.00 | 0.00 | 0.00 | 57 | 1015.1 |
| 20260506214525 | 73 | 260 | 7.8 | 13.0 | 0.00 | 0.00 | 0.00 | 56 | 1015.3 |
| 20260506213029 | 73 | 264 | 7.0 | 14.8 | 0.00 | 0.00 | 0.00 | 56 | 1015.4 |
| 20260506211524 | 73 | 267 | 8.7 | 13.0 | 0.00 | 0.00 | 0.00 | 58 | 1015.5 |
| 20260506210025 | 72 | 240 | 5.2 | 13.9 | 0.00 | 0.00 | 0.00 | 58 | 1015.6 |
| 20260506204520 | 72 | 180 | 8.7 | 13.0 | 0.00 | 0.00 | 0.00 | 58 | 1015.7 |
| 20260506203024 | 72 | 270 | 7.8 | 14.8 | 0.00 | 0.00 | 0.00 | 58 | 1015.8 |
| 20260506201516 | 72 | 240 | 7.0 | 14.8 | 0.00 | 0.00 | 0.00 | 58 | 1016.0 |
| 20260506200014 | 72 | 232 | 4.3 | 11.3 | 0.00 | 0.00 | 0.00 | 54 | 1016.0 |
| 20260506194512 | 72 | 217 | 6.1 | 13.9 | 0.00 | 0.00 | 0.00 | 53 | 1016.1 |
| 20260506193009 | 71 | 269 | 7.0 | 13.0 | 0.00 | 0.00 | 0.00 | 55 | 1016.2 |
| 20260506191506 | 70 | 252 | 2.6 | 13.0 | 0.00 | 0.00 | 0.00 | 55 | 1016.4 |
| 20260506184605 | 69 | 279 | 5.2 | 11.3 | 0.00 | 0.00 | 0.00 | 58 | 1016.7 |
| 20260506183103 | 68 | 285 | 6.1 | 11.3 | 0.00 | 0.00 | 0.00 | 57 | 1016.8 |
| 20260506181555 | 68 | 246 | 5.2 | 12.2 | 0.00 | 0.00 | 0.00 | 58 | 1017.0 |
| 20260506180045 | 67 | 251 | 4.3 | 10.4 | 0.00 | 0.00 | 0.00 | 60 | 1017.1 |
| 20260506174543 | 66 | 285 | 4.3 | 7.8 | 0.00 | 0.00 | 0.00 | 63 | 1017.0 |
| 20260506173045 | 65 | 265 | 5.2 | 9.6 | 0.00 | 0.00 | 0.00 | 62 | 1017.1 |
| 20260506171542 | 64 | 218 | 4.3 | 7.8 | 0.00 | 0.00 | 0.00 | 65 | 1017.2 |
| 20260506170035 | 64 | 271 | 2.6 | 7.0 | 0.00 | 0.00 | 0.00 | 65 | 1017.4 |
| 20260506164526 | 63 | 268 | 1.7 | 5.2 | 0.00 | 0.00 | 0.00 | 65 | 1017.4 |
| 20260506163025 | 62 | 169 | 0.0 | 3.5 | 0.00 | 0.00 | 0.00 | 69 | 1017.4 |
| 20260506161522 | 60 | 23 | 1.7 | 7.0 | 0.00 | 0.00 | 0.00 | 73 | 1017.5 |
| 20260506160019 | 58 | 33 | 5.2 | 7.8 | 0.00 | 0.00 | 0.00 | 75 | 1017.7 |
| 20260506154510 | 57 | 17 | 4.3 | 8.7 | 0.00 | 0.00 | 0.00 | 78 | 1017.6 |
| 20260506153006 | 55 | 53 | 6.1 | 9.6 | 0.00 | 0.00 | 0.00 | 80 | 1017.8 |
| 20260506151501 | 54 | 30 | 4.3 | 8.7 | 0.00 | 0.00 | 0.00 | 84 | 1017.9 |
| 20260506144601 | 51 | 39 | 7.0 | 10.4 | 0.00 | 0.00 | 0.00 | 88 | 1018.1 |
| 20260506143054 | 50 | 42 | 6.1 | 9.6 | 0.00 | 0.00 | 0.00 | 89 | 1017.9 |
| 20260506141545 | 50 | 46 | 5.2 | 8.7 | 0.00 | 0.00 | 0.00 | 90 | 1017.9 |
| 20260506140041 | 49 | 35 | 4.3 | 8.7 | 0.00 | 0.00 | 0.00 | 92 | 1017.7 |
| 20260506134537 | 48 | 61 | 2.6 | 8.7 | 0.00 | 0.00 | 0.00 | 92 | 1017.6 |
| 20260506133039 | 48 | 42 | 6.1 | 9.6 | 0.00 | 0.00 | 0.00 | 93 | 1017.5 |
| 20260506131531 | 47 | 69 | 3.5 | 6.1 | 0.00 | 0.00 | 0.00 | 92 | 1017.5 |
| 20260506130031 | 47 | 53 | 2.6 | 6.1 | 0.00 | 0.00 | 0.00 | 92 | 1017.3 |
| 20260506124526 | 47 | 53 | 3.5 | 5.2 | 0.00 | 0.00 | 0.00 | 92 | 1017.5 |
| 20260506123024 | 47 | 71 | 1.7 | 5.2 | 0.00 | 0.00 | 0.00 | 91 | 1017.1 |
| 20260506121521 | 48 | 83 | 2.6 | 5.2 | 0.00 | 0.00 | 0.00 | 92 | 1017.0 |
| 20260506120021 | 48 | 66 | 1.7 | 6.1 | 0.00 | 0.00 | 0.00 | 91 | 1017.1 |
| 20260506114528 | 48 | 46 | 2.6 | 5.2 | 0.00 | 0.00 | 0.00 | 92 | 1017.0 |
| 20260506113020 | 47 | 46 | 1.7 | 5.2 | 0.00 | 0.00 | 0.00 | 92 | 1016.9 |
| 20260506111519 | 47 | 69 | 1.7 | 5.2 | 0.00 | 0.00 | 0.00 | 91 | 1016.9 |
| 20260506110017 | 47 | 76 | 1.7 | 4.3 | 0.00 | 0.00 | 0.00 | 91 | 1016.8 |
| 20260506104515 | 49 | 44 | 3.5 | 6.1 | 0.00 | 0.00 | 0.00 | 90 | 1016.9 |
| 20260506103016 | 49 | 52 | 2.6 | 5.2 | 0.00 | 0.00 | 0.00 | 92 | 1016.8 |
| 20260506101518 | 48 | 29 | 3.5 | 8.7 | 0.00 | 0.00 | 0.00 | 91 | 1016.8 |
| 20260506100010 | 48 | 82 | 1.7 | 4.3 | 0.00 | 0.00 | 0.00 | 90 | 1016.8 |
| 20260506094514 | 48 | 90 | 0.9 | 4.3 | 0.00 | 0.00 | 0.00 | 90 | 1017.0 |
| 20260506093007 | 49 | 65 | 0.0 | 3.5 | 0.00 | 0.00 | 0.00 | 90 | 1017.0 |
| 20260506091504 | 50 | 31 | 0.0 | 2.6 | 0.00 | 0.00 | 0.00 | 91 | 1017.0 |
| 20260506090006 | 49 | 100 | 0.9 | 3.5 | 0.00 | 0.00 | 0.00 | 91 | 1017.1 |
| 20260506084503 | 49 | 55 | 0.9 | 2.6 | 0.00 | 0.00 | 0.00 | 89 | 1017.1 |
| 20260506083059 | 49 | 62 | 0.9 | 1.7 | 0.00 | 0.00 | 0.00 | 89 | 1017.1 |
| 20260506081555 | 50 | 57 | 0.0 | 0.9 | 0.00 | 0.00 | 0.00 | 89 | 1017.3 |
| 20260506073048 | 51 | 57 | 0.0 | 1.7 | 0.00 | 0.00 | 0.00 | 87 | 1017.1 |
| 20260506071600 | 51 | 193 | 0.0 | 0.0 | 0.00 | 0.00 | 0.00 | 87 | 1017.0 |
| 20260506061535 | 54 | 193 | 0.0 | 2.6 | 0.00 | 0.00 | 0.00 | 85 | 1016.1 |
| 20260506044528 | 56 | 212 | 0.9 | 3.5 | 0.00 | 0.00 | 0.00 | 80 | 1015.3 |
| 20260506043027 | 57 | 178 | 0.9 | 3.5 | 0.00 | 0.00 | 0.00 | 80 | 1015.2 |
| 20260506041530 | 57 | 198 | 0.0 | 3.5 | 0.00 | 0.00 | 0.00 | 79 | 1015.0 |
| 20260506040026 | 58 | 221 | 0.9 | 3.5 | 0.00 | 0.00 | 0.00 | 78 | 1014.7 |
| 20260506034520 | 58 | 232 | 1.7 | 5.2 | 0.00 | 0.00 | 0.00 | 77 | 1014.4 |
| 20260506033026 | 59 | 234 | 0.0 | 2.6 | 0.00 | 0.00 | 0.00 | 75 | 1014.3 |
| 20260506031523 | 60 | 178 | 0.9 | 4.3 | 0.00 | 0.00 | 0.00 | 74 | 1014.1 |
| 20260506030022 | 60 | 148 | 4.3 | 7.8 | 0.00 | 0.00 | 0.00 | 72 | 1013.8 |
| 20260506024516 | 61 | 287 | 0.9 | 3.5 | 0.00 | 0.00 | 0.00 | 70 | 1013.5 |
| 20260506023016 | 62 | 262 | 1.7 | 5.2 | 0.00 | 0.00 | 0.00 | 69 | 1013.2 |
| 20260506021515 | 63 | 219 | 3.5 | 7.0 | 0.00 | 0.00 | 0.00 | 68 | 1013.1 |
| 20260506020020 | 63 | 214 | 5.2 | 7.0 | 0.00 | 0.00 | 0.00 | 67 | 1012.9 |